| time (UTC) | temp F | wind direction | speed knots | gust knots | rain 1hr in | rain 24hr in | rain mn in | humidity % | barometer mb |
| 20260508035845 | 40 | 0 | 0.0 | 0.0 | 0.00 | 0.00 | 0.00 | 94 | 1017.3 |
| 20260508034845 | 40 | 0 | 0.0 | 0.0 | 0.00 | 0.00 | 0.00 | 93 | 1017.3 |
| 20260508033845 | 40 | 0 | 0.0 | 0.0 | 0.00 | 0.00 | 0.00 | 91 | 1017.3 |
| 20260508032844 | 40 | 0 | 0.0 | 0.0 | 0.00 | 0.00 | 0.00 | 92 | 1017.3 |
| 20260508031845 | 40 | 0 | 0.0 | 0.0 | 0.00 | 0.00 | 0.00 | 91 | 1017.4 |
| 20260508030845 | 40 | 0 | 0.0 | 0.0 | 0.00 | 0.00 | 0.00 | 90 | 1017.5 |
| 20260508025845 | 40 | 0 | 0.0 | 0.0 | 0.00 | 0.00 | 0.00 | 89 | 1017.7 |
| 20260508024844 | 40 | 0 | 0.0 | 0.0 | 0.00 | 0.00 | 0.00 | 87 | 1017.3 |
| 20260508023845 | 41 | 0 | 0.0 | 0.0 | 0.00 | 0.00 | 0.00 | 88 | 1017.2 |
| 20260508022844 | 41 | 0 | 0.0 | 0.0 | 0.00 | 0.00 | 0.00 | 85 | 1016.9 |
| 20260508022026 | 42 | 0 | 0.0 | 0.0 | 0.00 | 0.00 | 0.00 | 82 | 1016.6 |
| 20260508021845 | 42 | 0 | 0.0 | 0.0 | 0.00 | 0.00 | 0.00 | 82 | 1016.6 |
| 20260508020845 | 42 | 0 | 0.0 | 0.0 | 0.00 | 0.00 | 0.00 | 79 | 1016.1 |
| 20260508015845 | 42 | 0 | 0.0 | 0.0 | 0.00 | 0.00 | 0.00 | 79 | 1015.6 |
| 20260508014845 | 44 | 0 | 0.0 | 0.0 | 0.00 | 0.00 | 0.00 | 76 | 1015.4 |
| 20260508014245 | 45 | 0 | 0.0 | 0.0 | 0.00 | 0.00 | 0.00 | 72 | 1015.3 |
| 20260508014110 | 45 | 0 | 0.0 | 0.0 | 0.00 | 0.00 | 0.00 | 72 | 1015.3 |
| 20260508013920 | 45 | 0 | 0.0 | 0.0 | 0.00 | 0.00 | 0.00 | 72 | 1015.3 |
| 20260508013845 | 45 | 0 | 0.0 | 0.0 | 0.00 | 0.00 | 0.00 | 72 | 1015.3 |
| 20260508012844 | 46 | 0 | 0.0 | 0.0 | 0.00 | 0.00 | 0.00 | 69 | 1015.5 |
| 20260508012132 | 48 | 0 | 0.0 | 0.0 | 0.00 | 0.00 | 0.00 | 62 | 1015.9 |
| 20260508012008 | 48 | 0 | 0.0 | 0.0 | 0.00 | 0.00 | 0.00 | 62 | 1015.9 |
| 20260508011845 | 48 | 0 | 0.0 | 0.0 | 0.00 | 0.00 | 0.00 | 62 | 1015.9 |
| 20260508010844 | 49 | 0 | 0.0 | 0.0 | 0.00 | 0.00 | 0.00 | 57 | 1016.2 |
| 20260508005845 | 50 | 0 | 0.0 | 2.6 | 0.00 | 0.00 | 0.00 | 53 | 1016.7 |
| 20260508004846 | 51 | 0 | 0.0 | 2.6 | 0.00 | 0.00 | 0.00 | 50 | 1017.1 |
| 20260508003845 | 51 | 247 | 0.0 | 5.2 | 0.00 | 0.00 | 0.00 | 49 | 1017.4 |
| 20260508002845 | 52 | 0 | 0.0 | 7.0 | 0.00 | 0.00 | 0.00 | 48 | 1017.5 |
| 20260508001845 | 52 | 40 | 2.6 | 8.7 | 0.00 | 0.00 | 0.00 | 48 | 1017.6 |
| 20260508000844 | 52 | 358 | 5.2 | 5.2 | 0.00 | 0.00 | 0.00 | 48 | 1017.7 |
| 20260507235845 | 52 | 254 | 1.7 | 7.8 | 0.00 | 0.00 | 0.00 | 47 | 1017.7 |
| 20260507234844 | 53 | 266 | 4.3 | 11.3 | 0.00 | 0.00 | 0.00 | 45 | 1017.7 |
| 20260507233845 | 53 | 297 | 1.7 | 8.7 | 0.00 | 0.00 | 0.00 | 47 | 1017.5 |
| 20260507232846 | 53 | 328 | 2.6 | 10.4 | 0.00 | 0.00 | 0.00 | 45 | 1017.5 |
| 20260507231846 | 54 | 338 | 0.0 | 9.6 | 0.00 | 0.00 | 0.00 | 49 | 1017.3 |
| 20260507230845 | 54 | 272 | 0.0 | 6.1 | 0.00 | 0.00 | 0.00 | 52 | 1017.2 |
| 20260507225845 | 54 | 0 | 0.0 | 9.6 | 0.00 | 0.00 | 0.00 | 51 | 1017.3 |
| 20260507224845 | 54 | 167 | 0.9 | 10.4 | 0.00 | 0.00 | 0.00 | 50 | 1017.2 |
| 20260507223845 | 54 | 268 | 4.3 | 9.6 | 0.00 | 0.00 | 0.00 | 54 | 1017.3 |
| 20260507222845 | 54 | 220 | 3.5 | 8.7 | 0.00 | 0.00 | 0.00 | 56 | 1017.2 |
| 20260507221845 | 54 | 242 | 3.5 | 7.8 | 0.00 | 0.00 | 0.00 | 54 | 1017.1 |
| 20260507220844 | 54 | 18 | 1.7 | 8.7 | 0.00 | 0.00 | 0.00 | 59 | 1017.2 |
| 20260507215845 | 54 | 279 | 3.5 | 13.9 | 0.00 | 0.00 | 0.00 | 57 | 1017.2 |
| 20260507214844 | 55 | 295 | 3.5 | 13.0 | 0.00 | 0.00 | 0.00 | 56 | 1017.4 |
| 20260507213845 | 55 | 19 | 7.0 | 10.4 | 0.00 | 0.00 | 0.00 | 59 | 1017.5 |
| 20260507212844 | 54 | 337 | 4.3 | 8.7 | 0.00 | 0.00 | 0.00 | 55 | 1017.6 |
| 20260507211845 | 55 | 40 | 3.5 | 10.4 | 0.00 | 0.00 | 0.00 | 55 | 1017.8 |
| 20260507210847 | 55 | 316 | 4.3 | 11.3 | 0.00 | 0.00 | 0.00 | 53 | 1017.9 |
| 20260507204847 | 56 | 12 | 7.0 | 11.3 | 0.00 | 0.00 | 0.00 | 50 | 1018.0 |
| 20260507203845 | 56 | 262 | 3.5 | 7.8 | 0.00 | 0.00 | 0.00 | 53 | 1018.0 |
| 20260507202844 | 57 | 295 | 3.5 | 7.0 | 0.00 | 0.00 | 0.00 | 49 | 1018.0 |
| 20260507201845 | 59 | 348 | 7.0 | 6.1 | 0.00 | 0.00 | 0.00 | 49 | 1017.9 |
| 20260507200846 | 57 | 266 | 5.2 | 7.8 | 0.00 | 0.00 | 0.00 | 51 | 1018.1 |
| 20260507195845 | 56 | 5 | 5.2 | 9.6 | 0.00 | 0.00 | 0.00 | 51 | 1018.3 |
| 20260507194845 | 57 | 259 | 1.7 | 11.3 | 0.00 | 0.00 | 0.00 | 51 | 1018.5 |
| 20260507193845 | 58 | 46 | 1.7 | 8.7 | 0.00 | 0.00 | 0.00 | 51 | 1018.5 |
| 20260507192844 | 58 | 0 | 0.0 | 7.0 | 0.00 | 0.00 | 0.00 | 54 | 1018.5 |
| 20260507190844 | 57 | 333 | 2.6 | 5.2 | 0.00 | 0.00 | 0.00 | 54 | 1018.3 |
| 20260507185847 | 57 | 293 | 6.1 | 9.6 | 0.00 | 0.00 | 0.00 | 53 | 1018.1 |
| 20260507184844 | 56 | 357 | 4.3 | 12.2 | 0.00 | 0.00 | 0.00 | 50 | 1017.9 |
| 20260507183845 | 57 | 0 | 0.0 | 8.7 | 0.00 | 0.00 | 0.00 | 53 | 1017.8 |
| 20260507182844 | 58 | 304 | 3.5 | 4.3 | 0.00 | 0.00 | 0.00 | 49 | 1017.6 |
| 20260507181845 | 59 | 280 | 3.5 | 7.0 | 0.00 | 0.00 | 0.00 | 51 | 1017.5 |
| 20260507180844 | 58 | 214 | 0.0 | 7.0 | 0.00 | 0.00 | 0.00 | 45 | 1017.5 |
| 20260507175845 | 59 | 220 | 0.9 | 6.1 | 0.00 | 0.00 | 0.00 | 49 | 1017.3 |
| 20260507174844 | 59 | 282 | 4.3 | 7.0 | 0.00 | 0.00 | 0.00 | 43 | 1017.4 |
| 20260507173845 | 59 | 136 | 2.6 | 7.8 | 0.00 | 0.00 | 0.00 | 46 | 1017.3 |
| 20260507172844 | 57 | 200 | 2.6 | 7.8 | 0.00 | 0.00 | 0.00 | 47 | 1017.4 |
| 20260507171845 | 57 | 248 | 0.0 | 6.1 | 0.00 | 0.00 | 0.00 | 47 | 1017.6 |
| 20260507170844 | 57 | 173 | 0.9 | 4.3 | 0.00 | 0.00 | 0.00 | 52 | 1017.8 |
| 20260507165845 | 57 | 266 | 1.7 | 7.0 | 0.00 | 0.00 | 0.00 | 49 | 1017.8 |
| 20260507164844 | 58 | 228 | 0.9 | 7.0 | 0.00 | 0.00 | 0.00 | 47 | 1017.7 |
| 20260507163845 | 59 | 39 | 0.9 | 7.0 | 0.00 | 0.00 | 0.00 | 46 | 1017.7 |
| 20260507162844 | 58 | 0 | 1.7 | 7.0 | 0.00 | 0.00 | 0.00 | 51 | 1017.8 |
| 20260507161847 | 57 | 225 | 0.9 | 7.0 | 0.00 | 0.00 | 0.00 | 47 | 1017.8 |
| 20260507160845 | 57 | 344 | 2.6 | 4.3 | 0.00 | 0.00 | 0.00 | 47 | 1017.9 |
| 20260507155852 | 58 | 90 | 1.7 | 7.8 | 0.00 | 0.00 | 0.00 | 48 | 1018.0 |
| 20260507154844 | 58 | 189 | 4.3 | 7.0 | 0.00 | 0.00 | 0.00 | 48 | 1018.0 |
| 20260507153845 | 58 | 172 | 4.3 | 8.7 | 0.00 | 0.00 | 0.00 | 46 | 1018.0 |
| 20260507150844 | 55 | 313 | 4.3 | 7.0 | 0.00 | 0.00 | 0.00 | 56 | 1018.0 |
| 20260507145845 | 55 | 335 | 9.6 | 2.6 | 0.00 | 0.00 | 0.00 | 54 | 1018.0 |
| 20260507144847 | 55 | 173 | 0.9 | 5.2 | 0.00 | 0.00 | 0.00 | 54 | 1018.1 |
| 20260507143845 | 55 | 359 | 1.7 | 3.5 | 0.00 | 0.00 | 0.00 | 53 | 1018.1 |
| 20260507142844 | 55 | 242 | 2.6 | 8.7 | 0.00 | 0.00 | 0.00 | 52 | 1018.1 |
| 20260507141845 | 55 | 268 | 0.9 | 7.8 | 0.00 | 0.00 | 0.00 | 55 | 1018.1 |
| 20260507140844 | 56 | 323 | 2.6 | 3.5 | 0.00 | 0.00 | 0.00 | 54 | 1018.2 |
| 20260507135845 | 57 | 335 | 1.7 | 6.1 | 0.00 | 0.00 | 0.00 | 57 | 1018.2 |
| 20260507134847 | 57 | 265 | 1.7 | 5.2 | 0.00 | 0.00 | 0.00 | 59 | 1018.3 |
| 20260507133845 | 56 | 184 | 3.5 | 4.3 | 0.00 | 0.00 | 0.00 | 60 | 1018.4 |
| 20260507132844 | 55 | 221 | 0.9 | 5.2 | 0.00 | 0.00 | 0.00 | 66 | 1018.5 |
| 20260507131845 | 54 | 235 | 0.0 | 3.5 | 0.00 | 0.00 | 0.00 | 68 | 1018.5 |
| 20260507130844 | 53 | 197 | 0.9 | 3.5 | 0.00 | 0.00 | 0.00 | 73 | 1018.3 |
| 20260507125845 | 52 | 286 | 0.0 | 4.3 | 0.00 | 0.00 | 0.00 | 75 | 1018.3 |
| 20260507124844 | 51 | 163 | 2.6 | 4.3 | 0.00 | 0.00 | 0.00 | 81 | 1018.4 |
| 20260507123846 | 49 | 203 | 2.6 | 5.2 | 0.00 | 0.00 | 0.00 | 83 | 1018.3 |
| 20260507122845 | 47 | 203 | 1.7 | 3.5 | 0.00 | 0.00 | 0.00 | 84 | 1018.1 |
| 20260507121845 | 45 | 172 | 3.5 | 3.5 | 0.00 | 0.00 | 0.00 | 89 | 1018.1 |
| 20260507121002 | 44 | 191 | 1.7 | 2.6 | 0.00 | 0.00 | 0.00 | 92 | 1018.2 |
| 20260507120844 | 44 | 191 | 1.7 | 2.6 | 0.00 | 0.00 | 0.00 | 92 | 1018.2 |
| 20260507114844 | 41 | 173 | 1.7 | 3.5 | 0.00 | 0.00 | 0.00 | 97 | 1018.3 |
| 20260507113845 | 40 | 0 | 0.0 | 0.0 | 0.00 | 0.00 | 0.00 | 97 | 1018.3 |
| 20260507112844 | 40 | 0 | 0.0 | 0.0 | 0.00 | 0.00 | 0.00 | 97 | 1018.2 |
| 20260507111845 | 39 | 0 | 0.0 | 0.0 | 0.00 | 0.00 | 0.00 | 97 | 1018.1 |
| 20260507110846 | 39 | 0 | 0.0 | 0.0 | 0.00 | 0.00 | 0.00 | 97 | 1018.0 |
| 20260507105845 | 39 | 0 | 0.0 | 0.0 | 0.00 | 0.00 | 0.00 | 97 | 1017.9 |
| 20260507104844 | 39 | 0 | 0.0 | 0.0 | 0.00 | 0.00 | 0.00 | 97 | 1017.8 |
| 20260507103845 | 39 | 0 | 0.0 | 0.0 | 0.00 | 0.00 | 0.00 | 97 | 1017.7 |
| 20260507102844 | 39 | 0 | 0.0 | 0.0 | 0.00 | 0.01 | 0.00 | 97 | 1017.7 |
| 20260507102012 | 39 | 0 | 0.0 | 0.0 | 0.00 | 0.02 | 0.00 | 97 | 1017.7 |
| 20260507101845 | 39 | 0 | 0.0 | 0.0 | 0.00 | 0.02 | 0.00 | 97 | 1017.7 |
| 20260507100844 | 39 | 0 | 0.0 | 0.0 | 0.00 | 0.03 | 0.00 | 97 | 1017.5 |
| 20260507095845 | 39 | 0 | 0.0 | 0.0 | 0.00 | 0.03 | 0.00 | 97 | 1017.6 |
| 20260507093845 | 39 | 0 | 0.0 | 0.0 | 0.00 | 0.08 | 0.00 | 97 | 1017.6 |
| 20260507092847 | 39 | 0 | 0.0 | 0.0 | 0.00 | 0.10 | 0.00 | 97 | 1017.7 |
| 20260507091845 | 38 | 0 | 0.0 | 0.0 | 0.00 | 0.10 | 0.00 | 97 | 1017.7 |
| 20260507090844 | 38 | 0 | 0.0 | 0.0 | 0.00 | 0.10 | 0.00 | 97 | 1017.7 |
| 20260507085845 | 38 | 0 | 0.0 | 0.0 | 0.00 | 0.12 | 0.00 | 97 | 1017.8 |
| 20260507084844 | 38 | 0 | 0.0 | 0.0 | 0.00 | 0.14 | 0.00 | 97 | 1017.8 |
| 20260507083845 | 38 | 0 | 0.0 | 0.0 | 0.00 | 0.16 | 0.00 | 97 | 1017.8 |
| 20260507082844 | 37 | 0 | 0.0 | 0.0 | 0.00 | 0.17 | 0.00 | 96 | 1017.9 |
| 20260507081845 | 38 | 0 | 0.0 | 0.0 | 0.00 | 0.21 | 0.00 | 96 | 1017.9 |
| 20260507080844 | 38 | 0 | 0.0 | 0.0 | 0.00 | 0.24 | 0.00 | 96 | 1018.0 |
| 20260507075845 | 38 | 0 | 0.0 | 0.0 | 0.00 | 0.26 | 0.00 | 96 | 1018.0 |
| 20260507074844 | 38 | 0 | 0.0 | 0.0 | 0.00 | 0.30 | 0.00 | 96 | 1018.0 |
| 20260507073845 | 38 | 0 | 0.0 | 0.0 | 0.00 | 0.33 | 0.00 | 96 | 1018.0 |
| 20260507072844 | 39 | 0 | 0.0 | 0.0 | 0.00 | 0.35 | 0.00 | 95 | 1018.0 |
| 20260507071845 | 39 | 0 | 0.0 | 0.0 | 0.00 | 0.37 | 0.00 | 95 | 1018.0 |
| 20260507065845 | 39 | 0 | 0.0 | 0.0 | 0.00 | 0.42 | 0.00 | 95 | 1018.1 |
| 20260507064844 | 40 | 0 | 0.0 | 0.0 | 0.00 | 0.44 | 0.00 | 95 | 1018.1 |
| 20260507063845 | 40 | 0 | 0.0 | 0.0 | 0.00 | 0.46 | 0.00 | 95 | 1018.2 |
| 20260507062844 | 40 | 0 | 0.0 | 0.0 | 0.00 | 0.49 | 0.00 | 94 | 1018.3 |
| 20260507060844 | 41 | 0 | 0.0 | 0.0 | 0.00 | 0.53 | 0.00 | 91 | 1018.4 |
| 20260507055845 | 42 | 0 | 0.0 | 0.0 | 0.00 | 0.53 | 0.00 | 91 | 1018.5 |
| 20260507054846 | 43 | 0 | 0.0 | 0.0 | 0.00 | 0.55 | 0.00 | 91 | 1018.7 |
| 20260507053845 | 43 | 0 | 0.0 | 0.0 | 0.00 | 0.56 | 0.00 | 91 | 1019.2 |
| 20260507052847 | 43 | 0 | 0.0 | 0.0 | 0.00 | 0.57 | 0.00 | 91 | 1019.2 |
| 20260507052024 | 43 | 0 | 0.0 | 0.0 | 0.00 | 0.58 | 0.00 | 90 | 1019.2 |
| 20260507051846 | 43 | 0 | 0.0 | 0.0 | 0.00 | 0.58 | 0.00 | 90 | 1019.2 |
| 20260507050844 | 43 | 0 | 0.0 | 0.0 | 0.00 | 0.58 | 0.00 | 88 | 1019.4 |
| 20260507045845 | 44 | 0 | 0.0 | 0.0 | 0.00 | 0.59 | 0.00 | 89 | 1019.4 |
| 20260507044845 | 44 | 0 | 0.0 | 0.0 | 0.00 | 0.60 | 0.00 | 89 | 1019.5 |
| 20260507043845 | 43 | 0 | 0.0 | 0.0 | 0.00 | 0.60 | 0.00 | 89 | 1019.7 |
| 20260507042844 | 43 | 0 | 0.0 | 0.0 | 0.00 | 0.63 | 0.00 | 87 | 1019.8 |
| 20260507041847 | 43 | 0 | 0.0 | 0.0 | 0.00 | 0.64 | 0.00 | 88 | 1020.0 |
| 20260507040844 | 44 | 0 | 0.0 | 0.0 | 0.00 | 0.66 | 0.00 | 86 | 1020.2 |